Time,TemperatureF,DewpointF,PressureIn,WindDirection,WindDirectionDegrees,WindSpeedMPH,WindSpeedGustMPH,Humidity,HourlyPrecipIn,Conditions,Clouds,dailyrainin,SolarRadiationWatts/m^2,SoftwareType,DateUTC
2013-02-25 00:21:00,27.0,26.0,-100.00,South,179,0.0,0.0,96,0.00,,,0.25,0.000000,,2013-02-25 08:21:00,
2013-02-25 00:31:00,27.0,26.0,-100.00,South,179,0.0,0.0,96,0.00,,,0.25,0.000000,,2013-02-25 08:31:00,
2013-02-25 00:41:00,27.0,26.0,-100.00,South,179,0.0,0.0,96,0.00,,,0.25,0.000000,,2013-02-25 08:41:00,
2013-02-25 01:21:00,26.0,25.0,-100.00,South,179,0.0,0.0,96,0.00,,,0.25,0.000000,,2013-02-25 09:21:00,
2013-02-25 01:31:00,26.0,25.0,-100.00,South,179,0.0,0.0,96,0.00,,,0.25,0.000000,,2013-02-25 09:31:00,
2013-02-25 01:41:00,26.0,25.0,-100.00,South,179,0.0,0.0,96,0.00,,,0.25,0.000000,,2013-02-25 09:41:00,
2013-02-25 01:51:00,26.0,25.0,-100.00,South,179,0.0,0.0,96,0.00,,,0.25,0.000000,,2013-02-25 09:51:00,
2013-02-25 01:52:00,26.0,25.0,-100.00,NE,36,0.0,1.0,96,0.00,,,0.25,0.000000,,2013-02-25 09:52:00,
2013-02-25 02:21:00,26.0,25.0,-100.00,NE,36,0.0,1.0,96,0.00,,,0.25,0.000000,,2013-02-25 10:21:00,
2013-02-25 02:31:00,26.0,25.0,-100.00,NE,36,0.0,1.0,96,0.00,,,0.25,0.000000,,2013-02-25 10:31:00,
2013-02-25 02:41:00,26.0,25.0,-100.00,NE,36,0.0,1.0,96,0.00,,,0.25,0.000000,,2013-02-25 10:41:00,
2013-02-25 02:52:00,26.0,25.0,-100.00,NE,36,0.0,0.0,96,0.00,,,0.25,0.000000,,2013-02-25 10:52:00,
2013-02-25 03:11:00,26.0,25.0,-100.00,NE,36,0.0,0.0,96,0.00,,,0.25,0.000000,,2013-02-25 11:11:00,
2013-02-25 03:21:00,26.0,25.0,-100.00,NE,36,0.0,0.0,96,0.00,,,0.25,0.000000,,2013-02-25 11:21:00,
2013-02-25 03:32:00,26.0,25.0,-100.00,NE,36,0.0,0.0,96,0.00,,,0.25,0.000000,,2013-02-25 11:32:00,
2013-02-25 03:42:00,26.0,25.0,-100.00,NE,36,0.0,0.0,96,0.00,,,0.25,0.000000,,2013-02-25 11:42:00,
2013-02-25 03:52:00,24.0,23.0,-100.00,NNE,13,0.0,2.0,95,0.00,,,0.25,0.000000,,2013-02-25 11:52:00,
2013-02-25 04:11:00,24.0,23.0,-100.00,NNE,13,0.0,2.0,95,0.00,,,0.25,0.000000,,2013-02-25 12:11:00,
2013-02-25 04:21:00,24.0,23.0,-100.00,NNE,13,0.0,2.0,95,0.00,,,0.25,0.000000,,2013-02-25 12:21:00,
2013-02-25 04:32:00,24.0,23.0,-100.00,NNE,13,0.0,2.0,95,0.00,,,0.25,0.000000,,2013-02-25 12:32:00,
2013-02-25 04:42:00,24.0,23.0,-100.00,NNE,13,0.0,2.0,95,0.00,,,0.25,0.000000,,2013-02-25 12:42:00,
2013-02-25 05:12:00,23.0,22.0,-100.00,North,5,0.0,0.0,95,0.00,,,0.25,0.000000,,2013-02-25 13:12:00,
2013-02-25 05:22:00,23.0,22.0,-100.00,North,5,0.0,0.0,95,0.00,,,0.25,0.000000,,2013-02-25 13:22:00,
2013-02-25 05:31:00,23.0,22.0,-100.00,North,5,0.0,0.0,95,0.00,,,0.25,0.000000,,2013-02-25 13:31:00,
2013-02-25 05:41:00,23.0,22.0,-100.00,North,5,0.0,0.0,95,0.00,,,0.25,0.000000,,2013-02-25 13:41:00,
2013-02-25 05:51:00,23.0,22.0,-100.00,North,5,0.0,0.0,95,0.00,,,0.25,0.000000,,2013-02-25 13:51:00,
2013-02-25 05:52:00,23.0,22.0,-100.00,ESE,115,0.0,1.0,95,0.00,,,0.25,0.000000,,2013-02-25 13:52:00,
2013-02-25 06:16:00,23.0,22.0,-100.00,ESE,115,0.0,1.0,95,0.00,,,0.25,0.000000,,2013-02-25 14:16:00,
2013-02-25 06:22:00,23.0,22.0,-100.00,ESE,115,0.0,1.0,95,0.00,,,0.25,0.000000,,2013-02-25 14:22:00,
2013-02-25 06:31:00,23.0,22.0,-100.00,ESE,115,0.0,1.0,95,0.00,,,0.25,0.000000,,2013-02-25 14:31:00,
2013-02-25 06:41:00,23.0,22.0,-100.00,ESE,115,0.0,1.0,95,0.00,,,0.25,0.000000,,2013-02-25 14:41:00,
2013-02-25 07:11:00,24.0,23.0,-100.00,NNE,16,0.0,3.0,95,0.00,,,0.25,1.000000,,2013-02-25 15:11:00,
2013-02-25 07:21:00,24.0,23.0,-100.00,NNE,16,0.0,3.0,95,0.00,,,0.25,1.000000,,2013-02-25 15:21:00,
2013-02-25 07:32:00,24.0,23.0,-100.00,NNE,16,0.0,3.0,95,0.00,,,0.25,1.000000,,2013-02-25 15:32:00,
2013-02-25 07:41:00,24.0,23.0,-100.00,NNE,16,0.0,3.0,95,0.00,,,0.25,1.000000,,2013-02-25 15:41:00,
2013-02-25 07:51:00,24.0,23.0,-100.00,NNE,16,0.0,3.0,95,0.00,,,0.25,1.000000,,2013-02-25 15:51:00,
2013-02-25 08:21:00,26.0,25.0,-100.00,SSW,209,0.0,2.0,95,0.00,,,0.25,5.000000,,2013-02-25 16:21:00,
2013-02-25 08:31:00,26.0,25.0,-100.00,SSW,209,0.0,2.0,95,0.00,,,0.25,5.000000,,2013-02-25 16:31:00,
2013-02-25 08:41:00,26.0,25.0,-100.00,SSW,209,0.0,2.0,95,0.00,,,0.25,5.000000,,2013-02-25 16:41:00,
2013-02-25 08:51:00,26.0,25.0,-100.00,SSW,209,0.0,2.0,95,0.00,,,0.25,5.000000,,2013-02-25 16:51:00,
2013-02-25 09:21:00,27.0,26.0,-100.00,South,182,0.0,0.0,94,0.00,,,0.25,6.000000,,2013-02-25 17:21:00,
2013-02-25 09:31:00,27.0,26.0,-100.00,South,182,0.0,0.0,94,0.00,,,0.25,6.000000,,2013-02-25 17:31:00,
2013-02-25 09:41:00,27.0,26.0,-100.00,South,182,0.0,0.0,94,0.00,,,0.25,6.000000,,2013-02-25 17:41:00,
2013-02-25 09:51:00,27.0,26.0,-100.00,South,182,0.0,0.0,94,0.00,,,0.25,6.000000,,2013-02-25 17:51:00,
2013-02-25 10:12:00,31.0,29.0,-100.00,South,185,3.0,10.0,92,0.00,,,0.25,13.000000,,2013-02-25 18:12:00,
2013-02-25 10:21:00,31.0,29.0,-100.00,South,185,3.0,10.0,92,0.00,,,0.25,13.000000,,2013-02-25 18:21:00,
2013-02-25 10:32:00,31.0,29.0,-100.00,South,185,3.0,10.0,92,0.00,,,0.25,13.000000,,2013-02-25 18:32:00,
2013-02-25 10:41:00,31.0,29.0,-100.00,South,185,3.0,10.0,92,0.00,,,0.25,13.000000,,2013-02-25 18:41:00,
2013-02-25 10:51:00,31.0,29.0,-100.00,South,185,3.0,10.0,92,0.00,,,0.25,13.000000,,2013-02-25 18:51:00,
2013-02-25 10:52:00,33.0,30.0,-100.00,South,179,3.0,8.0,90,0.00,,,0.24,18.000000,,2013-02-25 18:52:00,
2013-02-25 11:11:00,33.0,30.0,-100.00,South,179,3.0,8.0,90,0.00,,,0.24,18.000000,,2013-02-25 19:11:00,
2013-02-25 11:21:00,33.0,30.0,-100.00,South,179,3.0,8.0,90,0.00,,,0.24,18.000000,,2013-02-25 19:21:00,
2013-02-25 11:31:00,33.0,30.0,-100.00,South,179,3.0,8.0,90,0.00,,,0.24,18.000000,,2013-02-25 19:31:00,
2013-02-25 11:41:00,33.0,30.0,-100.00,South,179,3.0,8.0,90,0.00,,,0.24,18.000000,,2013-02-25 19:41:00,
2013-02-25 11:52:00,37.0,33.0,-100.00,South,172,2.0,8.0,85,0.01,,,0.23,40.000000,,2013-02-25 19:52:00,
2013-02-25 12:11:00,37.0,33.0,-100.00,South,172,2.0,8.0,85,0.01,,,0.23,40.000000,,2013-02-25 20:11:00,
2013-02-25 12:21:00,37.0,33.0,-100.00,South,172,2.0,8.0,85,0.01,,,0.23,40.000000,,2013-02-25 20:21:00,
2013-02-25 12:31:00,37.0,33.0,-100.00,South,172,2.0,8.0,85,0.01,,,0.23,40.000000,,2013-02-25 20:31:00,
2013-02-25 12:41:00,37.0,33.0,-100.00,South,172,2.0,8.0,85,0.01,,,0.23,40.000000,,2013-02-25 20:41:00,
2013-02-25 13:11:00,41.0,34.0,-100.00,South,176,2.0,10.0,77,0.08,,,0.27,388.000000,,2013-02-25 21:11:00,
2013-02-25 13:21:00,41.0,34.0,-100.00,South,176,2.0,10.0,77,0.08,,,0.27,388.000000,,2013-02-25 21:21:00,
2013-02-25 14:11:00,40.0,35.0,-100.00,South,171,2.0,9.0,83,-99.99,,,0.30,339.000000,,2013-02-25 22:11:00,
2013-02-25 14:21:00,40.0,35.0,-100.00,South,171,2.0,9.0,83,-99.99,,,0.30,339.000000,,2013-02-25 22:21:00,
2013-02-25 14:31:00,40.0,35.0,-100.00,South,171,2.0,9.0,83,-99.99,,,0.30,339.000000,,2013-02-25 22:31:00,
2013-02-25 14:41:00,40.0,35.0,-100.00,South,171,2.0,9.0,83,-99.99,,,0.30,339.000000,,2013-02-25 22:41:00,
2013-02-25 14:51:00,40.0,35.0,-100.00,South,171,2.0,9.0,83,-99.99,,,0.30,339.000000,,2013-02-25 22:51:00,
2013-02-25 15:11:00,36.0,33.0,-100.00,South,190,0.0,7.0,90,0.05,,,0.27,224.000000,,2013-02-25 23:11:00,
2013-02-25 15:22:00,36.0,33.0,-100.00,South,190,0.0,7.0,90,0.05,,,0.27,224.000000,,2013-02-25 23:22:00,
2013-02-25 15:31:00,36.0,33.0,-100.00,South,190,0.0,7.0,90,0.05,,,0.27,224.000000,,2013-02-25 23:31:00,
2013-02-25 15:41:00,36.0,33.0,-100.00,South,190,0.0,7.0,90,0.05,,,0.27,224.000000,,2013-02-25 23:41:00,
2013-02-25 15:51:00,36.0,33.0,-100.00,South,190,0.0,7.0,90,0.05,,,0.27,224.000000,,2013-02-25 23:51:00,
2013-02-25 16:11:00,36.0,33.0,-100.00,SSW,210,2.0,7.0,88,0.05,,,0.26,158.000000,,2013-02-26 00:11:00,
2013-02-25 16:21:00,36.0,33.0,-100.00,SSW,210,2.0,7.0,88,0.05,,,0.26,158.000000,,2013-02-26 00:21:00,
2013-02-25 16:32:00,36.0,33.0,-100.00,SSW,210,2.0,7.0,88,0.05,,,0.26,158.000000,,2013-02-26 00:32:00,
2013-02-25 16:41:00,36.0,33.0,-100.00,SSW,210,2.0,7.0,88,0.05,,,0.26,158.000000,,2013-02-26 00:41:00,
2013-02-25 16:51:00,36.0,33.0,-100.00,SSW,210,2.0,7.0,88,0.05,,,0.26,158.000000,,2013-02-26 00:51:00,
2013-02-25 17:11:00,34.0,33.0,-100.00,NE,35,1.0,5.0,95,0.01,,,0.27,39.000000,,2013-02-26 01:11:00,
2013-02-25 17:21:00,34.0,33.0,-100.00,NE,35,1.0,5.0,95,0.01,,,0.27,39.000000,,2013-02-26 01:21:00,
2013-02-25 17:31:00,34.0,33.0,-100.00,NE,35,1.0,5.0,95,0.01,,,0.27,39.000000,,2013-02-26 01:31:00,
2013-02-25 17:41:00,34.0,33.0,-100.00,NE,35,1.0,5.0,95,0.01,,,0.27,39.000000,,2013-02-26 01:41:00,
2013-02-25 17:51:00,34.0,33.0,-100.00,NE,35,1.0,5.0,95,0.01,,,0.27,39.000000,,2013-02-26 01:51:00,
2013-02-25 18:11:00,32.0,32.0,-100.00,SSW,198,0.0,1.0,98,0.01,,,0.28,4.000000,,2013-02-26 02:11:00,
2013-02-25 18:21:00,32.0,32.0,-100.00,SSW,198,0.0,1.0,98,0.01,,,0.28,4.000000,,2013-02-26 02:21:00,
2013-02-25 18:32:00,32.0,32.0,-100.00,SSW,198,0.0,1.0,98,0.01,,,0.28,4.000000,,2013-02-26 02:32:00,
2013-02-25 18:41:00,32.0,32.0,-100.00,SSW,198,0.0,1.0,98,0.01,,,0.28,4.000000,,2013-02-26 02:41:00,
2013-02-25 18:51:00,32.0,32.0,-100.00,SSW,198,0.0,1.0,98,0.01,,,0.28,4.000000,,2013-02-26 02:51:00,
2013-02-25 19:11:00,32.0,32.0,-100.00,SW,215,0.0,5.0,98,0.00,,,0.28,0.000000,,2013-02-26 03:11:00,
2013-02-25 19:21:00,32.0,32.0,-100.00,SW,215,0.0,5.0,98,0.00,,,0.28,0.000000,,2013-02-26 03:21:00,
2013-02-25 19:31:00,32.0,32.0,-100.00,SW,215,0.0,5.0,98,0.00,,,0.28,0.000000,,2013-02-26 03:31:00,
2013-02-25 19:41:00,32.0,32.0,-100.00,SW,215,0.0,5.0,98,0.00,,,0.28,0.000000,,2013-02-26 03:41:00,
2013-02-25 19:51:00,32.0,32.0,-100.00,SW,215,0.0,5.0,98,0.00,,,0.28,0.000000,,2013-02-26 03:51:00,
2013-02-25 20:21:00,32.0,30.0,-100.00,South,179,1.0,5.0,94,0.00,,,0.28,0.000000,,2013-02-26 04:21:00,
2013-02-25 20:32:00,32.0,30.0,-100.00,South,179,1.0,5.0,94,0.00,,,0.28,0.000000,,2013-02-26 04:32:00,
2013-02-25 20:42:00,32.0,30.0,-100.00,South,179,1.0,5.0,94,0.00,,,0.28,0.000000,,2013-02-26 04:42:00,
2013-02-25 20:51:00,32.0,30.0,-100.00,South,179,1.0,5.0,94,0.00,,,0.28,0.000000,,2013-02-26 04:51:00,
2013-02-25 20:52:00,31.0,30.0,-100.00,SSE,162,0.0,5.0,96,0.00,,,0.28,0.000000,,2013-02-26 04:52:00,
2013-02-25 21:11:00,31.0,30.0,-100.00,SSE,162,0.0,5.0,96,0.00,,,0.28,0.000000,,2013-02-26 05:11:00,
2013-02-25 21:21:00,31.0,30.0,-100.00,SSE,162,0.0,5.0,96,0.00,,,0.28,0.000000,,2013-02-26 05:21:00,
2013-02-25 21:31:00,31.0,30.0,-100.00,SSE,162,0.0,5.0,96,0.00,,,0.28,0.000000,,2013-02-26 05:31:00,
2013-02-25 21:42:00,31.0,30.0,-100.00,SSE,162,0.0,5.0,96,0.00,,,0.28,0.000000,,2013-02-26 05:42:00,
2013-02-25 22:21:00,31.0,30.0,-100.00,SSE,148,0.0,5.0,96,0.00,,,0.28,0.000000,,2013-02-26 06:21:00,
2013-02-25 22:31:00,31.0,30.0,-100.00,SSE,148,0.0,5.0,96,0.00,,,0.28,0.000000,,2013-02-26 06:31:00,
2013-02-25 22:41:00,31.0,30.0,-100.00,SSE,148,0.0,5.0,96,0.00,,,0.28,0.000000,,2013-02-26 06:41:00,
2013-02-25 22:51:00,31.0,30.0,-100.00,SSE,148,0.0,5.0,96,0.00,,,0.28,0.000000,,2013-02-26 06:51:00,
2013-02-25 23:22:00,31.0,31.0,-100.00,SSE,155,0.0,3.0,98,0.00,,,0.28,0.000000,,2013-02-26 07:22:00,
2013-02-25 23:31:00,31.0,31.0,-100.00,SSE,155,0.0,3.0,98,0.00,,,0.28,0.000000,,2013-02-26 07:31:00,
2013-02-25 23:41:00,31.0,31.0,-100.00,SSE,155,0.0,3.0,98,0.00,,,0.28,0.000000,,2013-02-26 07:41:00,
2013-02-25 23:51:00,31.0,31.0,-100.00,SSE,155,0.0,3.0,98,0.00,,,0.28,0.000000,,2013-02-26 07:51:00,